DW1254 Weather Reports


Display with metric or nautical units.
time (UTC)temp
F
wind
direction
speed
MPH
gust
MPH
rain 1hr
in
rain 24hr
in
rain mn
in
humidity
%
barometer
mb
20210728085038 66 0 0.0 0.0 0.00 0.46 0.00 72 1021.7
20210728084138 67 0 0.0 0.0 0.00 0.46 0.00 70 1021.6
20210728083238 68 26 0.0 2.0 0.00 0.46 0.00 68 1021.8
20210728082338 68 46 0.0 2.0 0.00 0.46 0.00 65 1021.6
20210728081438 68 45 0.0 3.0 0.00 0.46 0.00 65 1021.7
20210728080538 68 32 0.0 2.0 0.00 0.46 0.00 66 1021.9
20210728075638 69 35 0.0 4.0 0.00 0.46 0.00 66 1022.1
20210728074738 69 39 1.0 7.0 0.00 0.46 0.00 65 1022.0
20210728073838 69 35 1.0 7.0 0.00 0.46 0.00 65 1021.9
20210728072938 69 37 0.0 4.0 0.00 0.46 0.00 65 1022.0
20210728072038 69 41 0.0 3.0 0.00 0.46 0.00 66 1022.2
20210728071138 69 30 0.0 2.0 0.00 0.46 0.00 67 1022.2
20210728070238 69 31 0.0 5.0 0.00 0.46 0.00 68 1022.0
20210728065338 68 27 0.0 5.0 0.00 0.46 0.46 69 1021.9
20210728064438 67 26 1.0 10.0 0.00 0.46 0.46 73 1021.8
20210728063538 67 37 0.0 9.0 0.00 0.46 0.46 76 1021.9
20210728062638 67 11 1.0 7.0 0.00 0.46 0.46 78 1022.2
20210728061738 66 357 0.0 4.0 0.00 0.46 0.46 80 1022.5
20210728060838 66 357 0.0 4.0 0.00 0.46 0.46 83 1022.8
20210728055938 65 331 0.0 5.0 0.00 0.46 0.46 84 1022.6
20210728055038 65 351 0.0 2.0 0.01 0.46 0.46 85 1022.8
20210728054138 65 13 0.0 4.0 0.02 0.46 0.46 86 1023.1
20210728053238 65 21 0.0 5.0 0.03 0.46 0.46 86 1023.3
20210728052338 64 352 0.0 3.0 0.03 0.46 0.46 88 1023.3
20210728051438 65 338 1.0 4.0 0.03 0.46 0.46 87 1023.5
20210728050538 65 329 1.0 8.0 0.03 0.46 0.46 88 1023.3
20210728045638 65 329 1.0 6.0 0.02 0.45 0.45 88 1023.6
20210728044738 66 289 1.0 5.0 0.02 0.45 0.45 87 1023.4
20210728043838 66 304 0.0 3.0 0.01 0.44 0.44 84 1024.0
20210728042938 66 336 1.0 6.0 0.00 0.43 0.43 82 1023.5
20210728042038 66 337 1.0 4.0 0.00 0.43 0.43 85 1023.4
20210728041138 66 339 1.0 6.0 0.00 0.43 0.43 86 1023.3
20210728040238 66 332 0.0 3.0 0.00 0.43 0.43 85 1023.3
20210728035338 66 290 0.0 6.0 0.00 0.43 0.43 83 1023.1
20210728034438 65 274 1.0 6.0 0.00 0.43 0.43 84 1022.8
20210728033538 65 271 1.0 5.0 0.03 0.43 0.43 87 1022.6
20210728032638 66 258 2.0 8.0 0.18 0.43 0.43 87 1022.4
20210728031740 66 246 2.0 13.0 0.18 0.43 0.43 87 1022.4
20210728030837 65 270 1.0 13.0 0.18 0.43 0.43 88 1022.4
20210728025938 65 336 1.0 8.0 0.18 0.43 0.43 88 1021.5
20210728025038 66 340 2.0 6.0 0.18 0.43 0.43 87 1021.3
20210728024137 67 309 1.0 6.0 0.18 0.43 0.43 84 1021.5
20210728023237 68 156 1.0 6.0 0.09 0.34 0.35 78 1022.0
20210728022338 69 331 2.0 9.0 0.01 0.25 0.25 76 1021.3
20210728021437 69 331 4.0 11.0 0.01 0.25 0.25 78 1020.4
20210728020538 69 333 4.0 13.0 0.01 0.25 0.25 80 1020.0
20210728015638 68 333 3.0 10.0 0.01 0.25 0.25 81 1020.2
20210728014737 68 335 4.0 12.0 0.01 0.25 0.25 82 1020.0
20210728013838 69 322 6.0 15.0 0.01 0.25 0.25 79 1020.1
20210728012938 69 311 4.0 13.0 0.00 0.24 0.24 77 1020.3
20210728012037 70 291 4.0 13.0 0.00 0.24 0.24 74 1020.4
20210728011137 70 275 4.0 11.0 0.00 0.24 0.24 75 1020.5
20210728010238 71 253 1.0 11.0 0.00 0.24 0.24 76 1020.4
20210728005337 71 310 2.0 8.0 0.00 0.24 0.24 75 1020.1
20210728004437 70 315 2.0 9.0 0.00 0.24 0.24 78 1019.7
20210728003537 70 327 4.0 11.0 0.00 0.24 0.24 81 1019.9
20210728002637 69 329 4.0 12.0 0.00 0.24 0.24 83 1019.8
20210728001737 69 333 4.0 13.0 0.00 0.24 0.24 85 1019.8
20210728000838 68 329 5.0 12.0 0.10 0.24 0.24 86 1019.9
20210727235937 68 330 6.0 13.0 0.23 0.24 0.24 87 1020.3
20210727235038 67 323 4.0 15.0 0.24 0.24 0.24 87 1020.1
20210727234137 67 332 4.0 13.0 0.24 0.24 0.24 87 1019.9
20210727233237 67 318 8.0 20.0 0.24 0.24 0.24 87 1019.9
20210727232337 66 317 11.0 22.0 0.24 0.24 0.24 86 1019.8
20210727231437 66 313 14.0 27.0 0.23 0.23 0.24 86 1019.7
20210727230537 69 302 9.0 23.0 0.07 0.07 0.08 81 1020.1
20210727225637 75 278 9.0 24.0 0.00 0.00 0.00 65 1020.4
20210727224737 80 272 5.0 24.0 0.00 0.00 0.00 54 1020.1
20210727223837 85 0 0.0 0.0 0.00 0.00 0.00 43 1019.5
20210727222937 86 227 1.0 4.0 0.00 0.00 0.00 39 1019.2
20210727222037 85 182 0.0 2.0 0.00 0.00 0.00 42 1019.2
20210727221138 85 164 0.0 4.0 0.00 0.00 0.00 39 1019.3
20210727220237 86 149 3.0 8.0 0.00 0.00 0.00 40 1019.3
20210727215337 87 142 1.0 8.0 0.00 0.00 0.00 38 1019.3
20210727214437 88 198 1.0 7.0 0.00 0.00 0.00 39 1019.7
20210727213537 87 207 0.0 4.0 0.00 0.00 0.00 38 1019.6
20210727212637 87 173 1.0 5.0 0.00 0.00 0.00 36 1019.8
20210727211737 87 276 1.0 7.0 0.00 0.00 0.00 41 1020.0
20210727210837 87 133 0.0 3.0 0.00 0.00 0.00 37 1020.0
20210727205937 86 178 0.0 5.0 0.00 0.00 0.00 39 1019.9
20210727205037 86 159 0.0 5.0 0.00 0.00 0.00 42 1020.2
20210727204137 86 140 0.0 4.0 0.00 0.00 0.00 41 1020.5
20210727203237 86 209 1.0 6.0 0.00 0.00 0.00 41 1020.6
20210727202337 85 222 1.0 6.0 0.00 0.00 0.00 43 1020.7
20210727201437 85 108 0.0 5.0 0.00 0.00 0.00 43 1020.8
20210727200537 84 129 1.0 5.0 0.00 0.00 0.00 41 1020.9
20210727195637 84 144 1.0 7.0 0.00 0.00 0.00 43 1020.6
20210727194737 85 161 0.0 7.0 0.00 0.00 0.00 43 1020.9
20210727193837 84 137 1.0 5.0 0.00 0.00 0.00 43 1020.8
20210727192937 84 155 1.0 5.0 0.00 0.00 0.00 45 1021.1
20210727192037 84 133 1.0 5.0 0.00 0.00 0.00 44 1021.1
20210727191137 83 106 0.0 3.0 0.00 0.00 0.00 44 1021.2
20210727190237 84 178 1.0 3.0 0.00 0.00 0.00 44 1021.1
20210727185337 84 177 1.0 5.0 0.00 0.00 0.00 45 1021.5
20210727184437 83 179 0.0 4.0 0.00 0.00 0.00 45 1021.6
20210727183537 82 167 0.0 4.0 0.00 0.00 0.00 46 1021.6
20210727182637 82 143 0.0 3.0 0.00 0.00 0.00 47 1021.7
20210727181737 82 310 0.0 2.0 0.00 0.00 0.00 49 1021.8
20210727180837 81 0 0.0 0.0 0.00 0.00 0.00 49 1021.8
20210727175937 81 112 0.0 4.0 0.00 0.00 0.00 49 1021.8
20210727175037 81 97 0.0 2.0 0.00 0.00 0.00 49 1021.8
20210727174137 81 137 0.0 4.0 0.00 0.01 0.00 50 1022.0
20210727173237 81 154 0.0 1.0 0.00 0.01 0.00 51 1021.8
20210727172337 80 159 0.0 4.0 0.00 0.01 0.00 52 1021.8
20210727171437 80 148 0.0 4.0 0.00 0.01 0.00 53 1021.9
20210727170537 80 125 0.0 4.0 0.00 0.01 0.00 54 1021.8
20210727165637 80 134 1.0 4.0 0.00 0.01 0.00 54 1021.9
20210727164737 79 107 0.0 5.0 0.00 0.01 0.00 53 1021.9
20210727163837 79 121 0.0 5.0 0.00 0.01 0.00 56 1021.8
20210727162937 78 145 1.0 5.0 0.00 0.01 0.00 57 1022.0
20210727162037 78 129 1.0 5.0 0.00 0.01 0.00 60 1021.9
20210727161137 78 135 0.0 2.0 0.00 0.01 0.00 60 1022.0
20210727160237 77 130 0.0 3.0 0.00 0.01 0.00 62 1021.7
20210727155337 77 131 0.0 5.0 0.00 0.01 0.00 63 1021.7
20210727154437 76 0 0.0 0.0 0.00 0.01 0.00 62 1021.6
20210727153537 76 112 0.0 2.0 0.00 0.01 0.00 64 1021.6
20210727152637 76 153 0.0 3.0 0.00 0.01 0.00 63 1021.7
20210727151737 75 144 1.0 4.0 0.00 0.01 0.00 63 1021.8
20210727150837 75 137 1.0 4.0 0.00 0.01 0.00 63 1021.7
20210727145937 75 143 0.0 4.0 0.00 0.01 0.00 65 1021.6
20210727145037 75 112 0.0 2.0 0.00 0.01 0.00 65 1021.5
20210727144137 75 0 0.0 0.0 0.00 0.01 0.00 60 1021.4
20210727143237 76 18 0.0 1.0 0.00 0.01 0.00 61 1021.4
20210727142337 76 0 0.0 0.0 0.00 0.01 0.00 63 1021.2
20210727141437 76 36 0.0 1.0 0.00 0.01 0.00 64 1021.1
20210727140537 75 0 0.0 0.0 0.00 0.01 0.00 67 1021.1
20210727135637 74 0 0.0 0.0 0.00 0.01 0.00 68 1021.1
20210727134737 71 0 0.0 0.0 0.00 0.01 0.00 75 1020.9
20210727133837 68 0 0.0 0.0 0.00 0.01 0.00 80 1020.9
20210727132937 66 0 0.0 0.0 0.00 0.01 0.00 86 1021.0
20210727132037 64 0 0.0 0.0 0.00 0.01 0.00 88 1020.8
20210727131137 62 0 0.0 0.0 0.00 0.01 0.00 88 1020.7
20210727130237 61 0 0.0 0.0 0.00 0.01 0.00 88 1020.5
20210727125337 61 0 0.0 0.0 0.00 0.01 0.00 88 1020.5
20210727124437 61 0 0.0 0.0 0.00 0.01 0.00 88 1020.5
20210727123537 61 0 0.0 0.0 0.00 0.01 0.00 88 1020.5
20210727122637 62 0 0.0 0.0 0.00 0.01 0.00 87 1020.3
20210727121737 62 0 0.0 0.0 0.00 0.01 0.00 87 1020.3
20210727120837 62 0 0.0 0.0 0.00 0.01 0.00 87 1020.3
20210727115937 62 0 0.0 0.0 0.00 0.01 0.00 87 1020.0
20210727115037 62 0 0.0 0.0 0.00 0.01 0.00 87 1020.1
20210727114137 62 0 0.0 0.0 0.00 0.01 0.00 88 1019.9
20210727113236 62 0 0.0 0.0 0.00 0.01 0.00 88 1019.9
20210727112337 62 0 0.0 0.0 0.00 0.01 0.00 88 1019.9
20210727111437 62 0 0.0 0.0 0.00 0.01 0.00 88 1019.8
20210727110537 62 0 0.0 0.0 0.00 0.01 0.00 87 1019.8
20210727105637 63 0 0.0 0.0 0.00 0.01 0.00 87 1019.7
20210727104737 63 0 0.0 0.0 0.00 0.01 0.00 85 1019.7
20210727103836 64 0 0.0 0.0 0.00 0.01 0.00 84 1019.7
20210727102936 64 0 0.0 0.0 0.00 0.01 0.00 83 1019.7
20210727102037 64 0 0.0 0.0 0.00 0.01 0.00 82 1019.7
20210727101136 65 0 0.0 0.0 0.00 0.01 0.00 81 1019.7
20210727100237 65 0 0.0 0.0 0.00 0.01 0.00 81 1019.7
20210727095336 66 0 0.0 0.0 0.00 0.01 0.00 81 1019.9
20210727094437 66 0 0.0 0.0 0.00 0.01 0.00 78 1019.8
20210727093537 66 0 0.0 0.0 0.00 0.01 0.00 79 1019.8
20210727092637 66 0 0.0 0.0 0.00 0.01 0.00 79 1019.7
20210727091736 66 0 0.0 0.0 0.00 0.01 0.00 79 1019.7
20210727090836 66 0 0.0 0.0 0.00 0.01 0.00 80 1020.0
20210727085937 66 0 0.0 0.0 0.00 0.01 0.00 79 1020.0